[[{"header":{"parameterUnit":"m.s-1","parameterCategory":1,"la1":30.2991,"la2":30.254,"lo1":-89.0895,"lo2":-89.0444,"dy":0.0017,"dx":0.0017,"nx":28,"ny":28,"refTime":"2023-08-25T09:00:00:Z","depth":0,"parameterNumber":2,"parameterNumberName":"U-component_of_WINDS"},"data":[0,0,0,0,0,0,0,0,0,0,0,0,0,0,0,0,0,0,0,0,0,0,0,0,0,0,0,0,0,0,0,0,0,0,0,0,0,0,0,0,0,0,0,0,0,0,0,0,0,0,0,0,0,0,0,0,0,0,1.4214,1.4215,0,1.437,1.4372,1.4374,1.442,1.4419,1.4419,1.4418,1.4577,1.4582,1.4587,0,0,0,0,0,0,0,0,0,0,0,0,0,1.3955,1.3959,1.4214,1.4216,1.4217,1.437,1.4372,1.4374,1.442,1.4419,1.4418,1.4417,1.4575,1.4581,1.4587,0,0,0,0,0,0,0,0,0,0,0,0,0,1.4085,1.3961,1.4213,1.4259,1.4265,1.4369,1.4372,1.4375,1.442,1.4419,1.4418,1.4417,1.4573,1.4581,1.4588,1.4658,0,0,1.4611,1.4614,0,0,0,0,0,0,0,0,1.4077,1.4094,1.425,1.4256,1.4263,1.4374,1.4339,1.447,1.4421,1.4361,1.4418,1.4416,1.451,1.4523,1.4555,1.4666,1.4672,1.4611,1.4616,1.4619,1.4621,0,0,0,0,0,0,0,1.4068,1.4088,1.4275,1.4252,1.426,1.4272,1.4289,1.4364,1.4441,1.4366,1.437,1.4388,1.4514,1.4548,1.4559,1.4675,1.4611,1.4618,1.4622,1.4625,1.4852,1.4854,0,0,0,0,0,0,1.4051,1.408,1.427,1.428,1.4165,1.4277,1.4296,1.434,1.444,1.4454,1.4389,1.439,1.4535,1.455,1.4565,1.4654,1.4619,1.4626,1.463,1.4851,1.4852,1.4854,0,0,0,0,0,0,1.4046,1.4068,1.4264,1.4181,1.4207,1.4283,1.4331,1.4343,1.4378,1.4457,1.4471,1.441,1.4535,1.4554,1.4635,1.466,1.4629,1.4636,1.4849,1.4851,1.4853,1.4833,0,0,0,0,0,0,1.4038,1.4066,1.4093,1.4181,1.4211,1.4332,1.4333,1.4347,1.439,1.4393,1.448,1.4493,1.4536,1.4623,1.4642,1.467,1.4642,1.4847,1.485,1.4853,1.4832,1.4834,1.4836,0,0,0,0,0,1.4029,1.408,1.4094,1.4117,1.4247,1.4333,1.435,1.4398,1.4392,1.442,1.4472,1.4491,1.4655,1.4631,1.4653,1.4683,1.4845,1.4849,1.4852,1.4831,1.4834,1.4836,0,0,0,0,0,0,1.3992,1.4093,1.4109,1.4191,1.4253,1.4341,1.4377,1.4399,1.4464,1.4463,1.452,1.4539,1.4616,1.4658,1.463,1.4757,1.4751,1.4759,1.4727,1.473,1.4733,1.4721,1.4648,0,0,0,0,0,1.3994,1.4055,1.414,1.4204,1.4235,1.4301,1.434,1.4371,1.4438,1.4464,1.4521,1.4585,1.4651,1.4693,1.4758,1.4838,1.4858,1.487,1.4872,1.4874,1.488,1.4926,1.4933,1.4866,1.4865,1.4865,0,0,1.3998,1.406,1.4096,1.4199,1.425,1.4313,1.4322,1.4388,1.4435,1.4474,1.4554,1.4598,1.4673,1.4754,1.4792,1.4791,1.4903,1.4878,1.4879,1.4884,1.4931,1.4937,1.4942,1.4868,1.4867,1.4867,0,0,1.4036,1.409,1.415,1.4202,1.4281,1.4325,1.4339,1.4424,1.4455,1.4536,1.4567,1.4624,1.4736,1.4788,1.4829,1.489,1.491,1.4909,1.4922,1.4966,1.4972,1.4977,1.4999,1.5006,1.4915,1.4915,1.4915,0,1.4031,1.4127,1.4178,1.4242,1.4287,1.4326,1.4387,1.4435,1.4531,1.4561,1.4558,1.4701,1.4754,1.4848,1.4863,1.4895,1.4913,1.4899,1.4967,1.4972,1.4978,1.4999,1.5007,1.4915,1.4915,1.4915,1.4915,0,1.4116,1.4182,1.4221,1.4313,1.4363,1.4425,1.4485,1.4529,1.4557,1.4601,1.4683,1.4749,1.4828,1.4853,1.488,1.4951,1.4948,1.4956,1.495,1.4983,1.5004,1.5013,1.4914,1.4914,1.4914,1.4914,0,0,1.4135,1.4256,1.427,1.4312,1.4403,1.4455,1.4519,1.4598,1.4634,1.4699,1.4755,1.485,1.4858,1.4904,1.4938,1.4977,1.5022,1.498,1.4983,1.4986,1.5105,1.5099,1.5108,1.5036,1.5038,1.5039,1.5099,0,1.4186,1.4303,1.4351,1.4446,1.4508,1.4547,1.4603,1.4665,1.4708,1.4767,1.4815,1.4881,1.4886,1.4915,1.4956,1.5007,1.5046,1.5004,1.5088,1.5091,1.5068,1.5119,1.5112,1.5166,1.5107,1.5109,1.511,0,1.426,1.4326,1.4427,1.4511,1.4539,1.4589,1.4665,1.4721,1.4792,1.4821,1.4874,1.4906,1.4975,1.4966,1.5063,1.5033,1.5071,1.5102,1.5105,1.5114,1.5102,1.513,1.5184,1.5192,1.5123,1.5122,1.5121,0,1.4264,1.4378,1.4454,1.4489,1.4589,1.4624,1.4667,1.4737,1.4781,1.4848,1.4877,1.4951,1.4991,1.5048,1.5099,1.5088,1.5192,1.5186,1.5218,1.5217,1.5238,1.5236,1.5299,1.5262,1.5262,1.5262,1.5261,0,1.4315,1.4375,1.4457,1.4504,1.4573,1.4628,1.4695,1.4741,1.4803,1.4859,1.4897,1.4949,1.5014,1.5074,1.5115,1.519,1.5208,1.5233,1.5243,1.523,1.5227,1.5255,1.5253,1.5264,1.5263,1.5263,1.5262,0,1.433,1.4388,1.4473,1.4561,1.4585,1.4632,1.4708,1.4754,1.48,1.4871,1.489,1.4962,1.5035,1.5092,1.5187,1.5215,1.5294,1.5305,1.527,1.5275,1.5304,1.53,1.5387,1.5402,1.5354,1.5355,1.5355,0,1.4359,1.4407,1.45,1.4541,1.4584,1.4649,1.4695,1.4752,1.4798,1.4883,1.492,1.4996,1.506,1.5175,1.5236,1.5309,1.5322,1.5348,1.5333,1.5319,1.5323,1.532,1.5325,1.5349,1.5349,1.5349,1.535,0,1.4404,1.4431,1.4496,1.4571,1.4625,1.4687,1.4749,1.478,1.4849,1.4899,1.4974,1.5024,1.5122,1.5197,1.5277,1.5322,1.5347,1.5354,1.5365,1.5352,1.533,1.5343,1.5275,1.5351,1.5351,1.5351,1.5351,1.5351,1.4428,1.4472,1.4546,1.4617,1.467,1.4728,1.4777,1.4829,1.4893,1.4978,1.5007,1.5085,1.5157,1.5267,1.5312,1.5374,1.5376,1.5392,1.5396,1.5399,1.5398,1.532,1.5389,1.5389,1.5389,1.5389,1.5389,0,1.4475,1.4525,1.459,1.4677,1.4733,1.4753,1.4824,1.487,1.4938,1.5002,1.5065,1.5152,1.5226,1.5293,1.537,1.5407,1.5421,1.5425,1.5423,1.5433,1.5392,1.5375,1.5413,1.5413,1.5413,1.5413,1.5413,1.5413,1.4506,1.4583,1.4618,1.4722,1.4772,1.4849,1.4888,1.4942,1.4993,1.509,1.5151,1.5195,1.526,1.5343,1.5411,1.5429,1.5456,1.5458,1.5478,1.5439,1.5436,1.5433,1.5417,1.5463,1.5463,1.5514,1.5515,1.5515]},{"header":{"parameterUnit":"m.s-1","parameterCategory":1,"la1":30.2991,"la2":30.254,"lo1":-89.0895,"lo2":-89.0444,"dy":0.0017,"dx":0.0017,"nx":28,"ny":28,"refTime":"2023-08-25T09:00:00:Z","depth":0,"parameterNumber":3,"parameterNumberName":"V-component_of_WINDS"},"data":[0,0,0,0,0,0,0,0,0,0,0,0,0,0,0,0,0,0,0,0,0,0,0,0,0,0,0,0,0,0,0,0,0,0,0,0,0,0,0,0,0,0,0,0,0,0,0,0,0,0,0,0,0,0,0,0,0,0,1.8153,1.8152,0,1.807,1.8069,1.8068,1.7993,1.7992,1.7992,1.7991,1.79,1.7899,1.7897,0,0,0,0,0,0,0,0,0,0,0,0,0,1.8242,1.8241,1.8153,1.8152,1.8151,1.807,1.8069,1.8068,1.7993,1.7992,1.7991,1.799,1.7901,1.7899,1.7897,0,0,0,0,0,0,0,0,0,0,0,0,0,1.8186,1.824,1.8153,1.8104,1.8099,1.807,1.8069,1.8067,1.7994,1.7992,1.7991,1.799,1.7902,1.7899,1.7897,1.7908,0,0,1.789,1.7889,0,0,0,0,0,0,0,0,1.8189,1.8182,1.8112,1.8107,1.8102,1.8041,1.8067,1.8014,1.7994,1.8033,1.7991,1.7989,1.7948,1.7942,1.7929,1.7904,1.79,1.7889,1.7888,1.7887,1.7886,0,0,0,0,0,0,0,1.8193,1.8185,1.812,1.8111,1.8105,1.8085,1.8075,1.8057,1.7999,1.803,1.8024,1.8016,1.7945,1.7931,1.7926,1.7899,1.7889,1.7887,1.7886,1.7885,1.788,1.7881,0,0,0,0,0,0,1.8205,1.8189,1.8122,1.8117,1.8143,1.8084,1.8074,1.8061,1.7999,1.7988,1.8017,1.8013,1.7936,1.7929,1.7923,1.7932,1.7887,1.7885,1.7883,1.7879,1.788,1.7881,0,0,0,0,0,0,1.8207,1.82,1.8126,1.8152,1.8141,1.8084,1.8071,1.8061,1.8047,1.7989,1.7978,1.8014,1.7935,1.7926,1.7913,1.7928,1.7884,1.7881,1.7877,1.7879,1.7881,1.7952,0,0,0,0,0,0,1.821,1.8201,1.8206,1.8153,1.814,1.8119,1.8072,1.806,1.8044,1.8037,1.7984,1.7973,1.7933,1.7917,1.7911,1.7924,1.788,1.7875,1.7878,1.788,1.7948,1.7956,1.7963,0,0,0,0,0,1.8213,1.8228,1.8207,1.8199,1.8145,1.812,1.8113,1.8067,1.8045,1.8049,1.8012,1.7975,1.7928,1.7916,1.7908,1.7921,1.7874,1.7877,1.788,1.7945,1.7954,1.7963,0,0,0,0,0,0,1.8282,1.822,1.8196,1.8193,1.8163,1.8108,1.8111,1.8079,1.8053,1.8048,1.7991,1.7979,1.7973,1.7945,1.7934,1.7929,1.7896,1.7897,1.7948,1.7956,1.7964,1.797,1.7878,0,0,0,0,0,1.8298,1.8285,1.823,1.8233,1.8219,1.8168,1.8156,1.8124,1.8089,1.8075,1.8037,1.8003,1.7981,1.7967,1.7943,1.7944,1.793,1.7948,1.7956,1.7962,1.7964,1.7963,1.797,1.7891,1.7891,1.7891,0,0,1.8328,1.8293,1.8287,1.8246,1.8219,1.8205,1.8158,1.8145,1.8134,1.8072,1.8059,1.803,1.7988,1.7983,1.7978,1.7959,1.7984,1.7966,1.7972,1.797,1.7967,1.7974,1.7981,1.7893,1.7893,1.7892,0,0,1.8378,1.835,1.835,1.8324,1.8284,1.825,1.825,1.82,1.8179,1.8164,1.8118,1.8103,1.8066,1.8038,1.8019,1.806,1.8025,1.8053,1.8092,1.8091,1.8098,1.8103,1.8117,1.8123,1.8055,1.8055,1.8055,0,1.842,1.84,1.8353,1.8344,1.8327,1.8273,1.8272,1.8248,1.8202,1.8191,1.8171,1.8124,1.8092,1.8079,1.8089,1.8075,1.8073,1.8059,1.8101,1.8106,1.811,1.8123,1.8129,1.8059,1.8059,1.8058,1.8058,0,1.8454,1.8441,1.8445,1.8404,1.8388,1.8383,1.8334,1.8322,1.8292,1.826,1.8246,1.8206,1.8173,1.8168,1.8137,1.815,1.814,1.8112,1.8077,1.8122,1.8133,1.8138,1.8064,1.8063,1.8062,1.8061,0,0,1.8544,1.8479,1.8481,1.8462,1.8414,1.8402,1.8394,1.8364,1.8356,1.8325,1.8317,1.8287,1.826,1.8239,1.8204,1.8204,1.8239,1.8175,1.8173,1.8188,1.8251,1.8274,1.8281,1.8215,1.8216,1.8217,1.8255,0,1.8585,1.8571,1.8529,1.8526,1.8512,1.8461,1.8454,1.8424,1.8393,1.8376,1.8342,1.8322,1.8288,1.8275,1.8272,1.8235,1.8251,1.8232,1.8206,1.8205,1.8218,1.8286,1.831,1.8348,1.8259,1.826,1.826,0,1.8632,1.8607,1.8604,1.8558,1.8551,1.8546,1.8515,1.85,1.8464,1.8442,1.8419,1.8381,1.8369,1.8337,1.8319,1.8307,1.8294,1.8274,1.8274,1.827,1.8236,1.8284,1.8359,1.8365,1.8267,1.8266,1.8266,0,1.8698,1.8664,1.8658,1.8643,1.8589,1.8587,1.8564,1.8526,1.8511,1.8484,1.8474,1.8444,1.8429,1.8406,1.8361,1.8342,1.8348,1.8312,1.8328,1.833,1.8332,1.8333,1.8406,1.8323,1.8323,1.8323,1.8323,0,1.8749,1.8749,1.8687,1.8684,1.8682,1.8633,1.8632,1.8604,1.8571,1.856,1.8513,1.8503,1.8445,1.8427,1.8392,1.8382,1.8375,1.8356,1.8347,1.8361,1.8363,1.8351,1.8348,1.8325,1.8324,1.8324,1.8324,0,1.8823,1.8782,1.8772,1.8722,1.871,1.8711,1.8667,1.8661,1.8628,1.8615,1.8608,1.8557,1.8534,1.8488,1.8451,1.8428,1.8426,1.8409,1.844,1.8434,1.8453,1.8452,1.8521,1.8528,1.8441,1.8442,1.8443,0,1.8858,1.8858,1.8809,1.8799,1.8779,1.8763,1.8748,1.87,1.8686,1.8645,1.8644,1.8618,1.8595,1.8562,1.8519,1.8492,1.8474,1.85,1.8469,1.8484,1.8475,1.8476,1.8475,1.8507,1.8508,1.8509,1.851,0,1.8926,1.8906,1.8887,1.8862,1.8846,1.8823,1.8797,1.8791,1.8736,1.8723,1.8701,1.8683,1.8648,1.8623,1.8589,1.8563,1.8528,1.852,1.8523,1.8537,1.8555,1.8546,1.8459,1.8519,1.8518,1.8517,1.8517,1.8516,1.8981,1.8979,1.8945,1.8925,1.8901,1.8879,1.8871,1.8838,1.882,1.8789,1.8761,1.8741,1.8705,1.8656,1.8633,1.8616,1.8598,1.8601,1.8602,1.8604,1.861,1.8558,1.8609,1.8609,1.8608,1.8608,1.8608,0,1.9047,1.9023,1.9006,1.8973,1.8958,1.8927,1.8897,1.8886,1.8871,1.884,1.882,1.8794,1.877,1.8727,1.8698,1.8693,1.8676,1.8687,1.8687,1.8682,1.8627,1.8628,1.8702,1.8702,1.8702,1.8702,1.8702,1.8701,1.9079,1.9073,1.9049,1.9031,1.9006,1.8988,1.8974,1.8952,1.8929,1.8903,1.8884,1.8856,1.8821,1.879,1.8766,1.8753,1.8745,1.8762,1.8745,1.8694,1.8685,1.8677,1.8678,1.876,1.8761,1.88,1.8801,1.8801]}]]